N420GL KEYW-KDAB

Flight info

Callsign N420GL
Flight time 1h 25m
Altitude 27000
Route KMTH SWAGS DIDDY DIMBY/N0282F160 T208 SMYRA
Aircraft BE20/L-SBGRY/S

Departure

Time 2026-04-28 20:40
Airport Key West International Airport (KEYW)

Arrival

Time 2026-04-28 22:05
Airport Daytona Beach International Airport (KDAB)
Time Latitude Longitude Altitude Speed Heading
2026-04-28 20:23 24.55444 -81.75666 7 ft 0 kts 360°
2026-04-28 20:34 24.55447 -81.75666 7 ft 2 kts 357°
2026-04-28 20:35 24.55495 -81.75673 8 ft 10 kts 348°
2026-04-28 20:35 24.55528 -81.75741 8 ft 14 kts 270°
2026-04-28 20:35 24.55527 -81.75869 8 ft 14 kts 270°
2026-04-28 20:35 24.55524 -81.75983 7 ft 17 kts 266°
2026-04-28 20:36 24.55522 -81.76134 7 ft 23 kts 269°
2026-04-28 20:36 24.55523 -81.76308 7 ft 18 kts 269°
2026-04-28 20:36 24.55521 -81.76447 7 ft 19 kts 269°
2026-04-28 20:36 24.55521 -81.76603 7 ft 14 kts 271°
2026-04-28 20:37 24.55528 -81.76639 7 ft 4 kts 295°
2026-04-28 20:37 24.55531 -81.76644 7 ft 0 kts 316°
2026-04-28 20:38 24.55534 -81.76645 7 ft 2 kts 327°
2026-04-28 20:38 24.55579 -81.76656 6 ft 11 kts 360°
2026-04-28 20:38 24.55607 -81.76630 6 ft 5 kts 96°
2026-04-28 20:38 24.55607 -81.76616 6 ft 0 kts 89°
2026-04-28 20:39 24.55608 -81.76501 6 ft 45 kts 90°
2026-04-28 20:39 24.55613 -81.75927 10 ft 102 kts 90°
2026-04-28 20:39 24.55628 -81.75060 376 ft 117 kts 85°
2026-04-28 20:40 24.55665 -81.74102 798 ft 139 kts 83°
2026-04-28 20:40 24.55909 -81.73132 1497 ft 128 kts 62°
2026-04-28 20:40 24.56413 -81.72237 1910 ft 144 kts 61°
2026-04-28 20:40 24.56740 -81.71186 2449 ft 148 kts 71°
2026-04-28 20:41 24.57052 -81.70106 3002 ft 149 kts 73°
2026-04-28 20:41 24.57320 -81.69000 3574 ft 151 kts 74°
2026-04-28 20:41 24.57587 -81.67892 4161 ft 150 kts 74°
2026-04-28 20:41 24.57853 -81.66779 4766 ft 150 kts 74°
2026-04-28 20:42 24.58130 -81.65653 5288 ft 154 kts 73°
2026-04-28 20:42 24.58408 -81.64501 5844 ft 158 kts 72°
2026-04-28 20:42 24.58690 -81.63334 6396 ft 159 kts 73°
2026-04-28 20:42 24.58971 -81.62170 6918 ft 160 kts 72°
2026-04-28 20:43 24.59258 -81.60982 7423 ft 163 kts 71°
2026-04-28 20:43 24.59550 -81.59771 7953 ft 165 kts 72°
2026-04-28 20:43 24.59846 -81.58547 8504 ft 166 kts 72°
2026-04-28 20:43 24.60143 -81.57314 9048 ft 167 kts 71°
2026-04-28 20:44 24.60443 -81.56069 9594 ft 170 kts 71°
2026-04-28 20:44 24.60747 -81.54810 10134 ft 171 kts 71°
2026-04-28 20:44 24.61054 -81.53536 10646 ft 173 kts 71°
2026-04-28 20:44 24.61363 -81.52254 11181 ft 173 kts 71°
2026-04-28 20:45 24.61672 -81.50969 11682 ft 175 kts 71°
2026-04-28 20:45 24.61979 -81.49691 12213 ft 175 kts 71°
2026-04-28 20:45 24.62293 -81.48390 12743 ft 176 kts 71°
2026-04-28 20:45 24.62608 -81.47080 13236 ft 178 kts 71°
2026-04-28 20:46 24.62925 -81.45758 13698 ft 179 kts 71°
2026-04-28 20:46 24.63246 -81.44426 14123 ft 180 kts 71°
2026-04-28 20:46 24.63567 -81.43085 14513 ft 182 kts 71°
2026-04-28 20:46 24.63891 -81.41738 14902 ft 183 kts 71°
2026-04-28 20:47 24.64217 -81.40380 15291 ft 185 kts 71°
2026-04-28 20:47 24.64546 -81.39008 15675 ft 186 kts 71°
2026-04-28 20:47 24.64877 -81.37628 16060 ft 187 kts 70°
2026-04-28 20:47 24.65210 -81.36240 16441 ft 189 kts 70°
2026-04-28 20:48 24.65540 -81.34858 16810 ft 190 kts 70°
2026-04-28 20:48 24.65879 -81.33447 17190 ft 191 kts 70°
2026-04-28 20:48 24.66218 -81.32028 17565 ft 192 kts 70°
2026-04-28 20:48 24.66559 -81.30602 17933 ft 194 kts 70°
2026-04-28 20:49 24.66903 -81.29165 18294 ft 195 kts 70°
2026-04-28 20:49 24.67250 -81.27714 18614 ft 197 kts 70°
2026-04-28 20:49 24.67600 -81.26247 18910 ft 199 kts 70°
2026-04-28 20:49 24.67953 -81.24771 19223 ft 200 kts 70°
2026-04-28 20:50 24.68308 -81.23284 19655 ft 201 kts 70°
2026-04-28 20:50 24.68664 -81.21794 20092 ft 202 kts 70°
2026-04-28 20:50 24.69022 -81.20291 20513 ft 204 kts 70°
2026-04-28 20:50 24.69383 -81.18780 20938 ft 205 kts 70°
2026-04-28 20:51 24.69741 -81.17274 21355 ft 207 kts 70°
2026-04-28 20:51 24.70107 -81.15741 21772 ft 208 kts 70°
2026-04-28 20:51 24.70474 -81.14196 22183 ft 210 kts 70°
2026-04-28 20:51 24.70724 -81.13146 22455 ft 211 kts 70°
2026-04-28 20:52 24.71217 -81.11071 22980 ft 212 kts 70°
2026-04-28 20:52 24.71593 -81.09493 23367 ft 214 kts 70°
2026-04-28 20:52 24.72019 -81.07929 23736 ft 212 kts 59°
2026-04-28 20:52 24.72846 -81.06620 24035 ft 208 kts 40°
2026-04-28 20:53 24.75375 -81.05279 24620 ft 205 kts
2026-04-28 20:53 24.76801 -81.05286 24884 ft 206 kts 356°
2026-04-28 20:53 24.78238 -81.05331 25180 ft 207 kts 356°
2026-04-28 20:54 24.79191 -81.05361 25372 ft 207 kts 356°
2026-04-28 20:54 24.80638 -81.05408 25651 ft 209 kts 356°
2026-04-28 20:54 24.82092 -81.05457 25928 ft 210 kts 356°
2026-04-28 20:54 24.83556 -81.05506 26199 ft 211 kts 356°
2026-04-28 20:55 24.85024 -81.05554 26465 ft 212 kts 355°
2026-04-28 20:55 24.86499 -81.05603 26729 ft 212 kts 355°
2026-04-28 20:55 24.87980 -81.05652 26976 ft 213 kts 355°
2026-04-28 20:55 24.89483 -81.05702 27091 ft 221 kts 355°
2026-04-28 20:56 24.91055 -81.05755 27105 ft 231 kts 355°
2026-04-28 20:56 24.92686 -81.05808 27105 ft 239 kts 355°
2026-04-28 20:56 24.94369 -81.05863 27103 ft 245 kts 356°
2026-04-28 20:56 24.96089 -81.05919 27100 ft 250 kts 356°
2026-04-28 20:57 24.97819 -81.05977 27094 ft 253 kts 356°
2026-04-28 20:57 24.99592 -81.06035 27090 ft 256 kts 356°
2026-04-28 20:57 25.01369 -81.06094 27086 ft 256 kts 356°
2026-04-28 20:57 25.03150 -81.06153 27085 ft 256 kts 356°
2026-04-28 20:58 25.04930 -81.06212 27085 ft 255 kts 356°
2026-04-28 20:58 25.06709 -81.06272 27081 ft 256 kts 356°
2026-04-28 20:58 25.08486 -81.06331 27082 ft 255 kts 356°
2026-04-28 20:58 25.10259 -81.06390 27082 ft 255 kts 356°
2026-04-28 20:59 25.12030 -81.06449 27082 ft 254 kts 356°
2026-04-28 20:59 25.13801 -81.06508 27084 ft 254 kts 356°
2026-04-28 20:59 25.15571 -81.06567 27084 ft 254 kts 356°
2026-04-28 20:59 25.17341 -81.06626 27083 ft 254 kts 356°
2026-04-28 21:00 25.19111 -81.06685 27083 ft 254 kts 356°
2026-04-28 21:00 25.20879 -81.06744 27083 ft 254 kts 356°
2026-04-28 21:00 25.22625 -81.06802 27083 ft 254 kts 356°
2026-04-28 21:00 25.24393 -81.06861 27083 ft 254 kts 356°
2026-04-28 21:01 25.26162 -81.06920 27086 ft 254 kts 356°
2026-04-28 21:01 25.27928 -81.06978 27087 ft 254 kts 356°
2026-04-28 21:01 25.29695 -81.07039 27086 ft 254 kts 356°
2026-04-28 21:01 25.31459 -81.07098 27085 ft 254 kts 356°
2026-04-28 21:02 25.33226 -81.07157 27085 ft 254 kts 356°
2026-04-28 21:02 25.34991 -81.07216 27084 ft 254 kts 356°
2026-04-28 21:02 25.36757 -81.07275 27084 ft 254 kts 356°
2026-04-28 21:02 25.38527 -81.07334 27088 ft 254 kts 356°
2026-04-28 21:03 25.40274 -81.07392 27089 ft 254 kts 356°
2026-04-28 21:03 25.42044 -81.07452 27089 ft 254 kts 356°
2026-04-28 21:03 25.43813 -81.07511 27089 ft 254 kts 356°
2026-04-28 21:03 25.45584 -81.07570 27089 ft 254 kts 356°
2026-04-28 21:04 25.47356 -81.07629 27089 ft 255 kts 356°
2026-04-28 21:04 25.49127 -81.07689 27089 ft 255 kts 356°
2026-04-28 21:04 25.50898 -81.07749 27089 ft 255 kts 356°
2026-04-28 21:04 25.52670 -81.07808 27089 ft 255 kts 356°
2026-04-28 21:05 25.54444 -81.07867 27088 ft 255 kts 356°
2026-04-28 21:05 25.56217 -81.07927 27088 ft 255 kts 356°
2026-04-28 21:05 25.57989 -81.07986 27089 ft 255 kts 356°
2026-04-28 21:05 25.59760 -81.08046 27088 ft 255 kts 356°
2026-04-28 21:06 25.61533 -81.08105 27090 ft 255 kts 356°
2026-04-28 21:06 25.63306 -81.08165 27090 ft 255 kts 356°
2026-04-28 21:06 25.65054 -81.08224 27090 ft 255 kts 356°
2026-04-28 21:06 25.66848 -81.08284 27090 ft 255 kts 356°
2026-04-28 21:07 25.68598 -81.08343 27087 ft 255 kts 356°
2026-04-28 21:07 25.70379 -81.08403 27089 ft 256 kts 356°
2026-04-28 21:07 25.72156 -81.08463 27088 ft 256 kts 356°
2026-04-28 21:07 25.73934 -81.08523 27091 ft 256 kts 356°
2026-04-28 21:08 25.75712 -81.08583 27087 ft 256 kts 356°
2026-04-28 21:08 25.77496 -81.08643 27088 ft 256 kts 356°
2026-04-28 21:08 25.79276 -81.08703 27089 ft 256 kts 356°
2026-04-28 21:08 25.81059 -81.08763 27088 ft 256 kts 356°
2026-04-28 21:09 25.82837 -81.08823 27093 ft 256 kts 356°
2026-04-28 21:09 25.84620 -81.08883 27092 ft 256 kts 356°
2026-04-28 21:09 25.86400 -81.08943 27092 ft 256 kts 356°
2026-04-28 21:09 25.88180 -81.09003 27093 ft 256 kts 356°
2026-04-28 21:10 25.89961 -81.09063 27093 ft 256 kts 356°
2026-04-28 21:10 25.91741 -81.09123 27092 ft 256 kts 356°
2026-04-28 21:10 25.93520 -81.09183 27092 ft 256 kts 356°
2026-04-28 21:10 25.95277 -81.09243 27092 ft 256 kts 356°
2026-04-28 21:11 25.97060 -81.09303 27094 ft 256 kts 356°
2026-04-28 21:11 25.98844 -81.09363 27096 ft 256 kts 356°
2026-04-28 21:11 26.00628 -81.09423 27097 ft 256 kts 356°
2026-04-28 21:11 26.02411 -81.09484 27096 ft 256 kts 356°
2026-04-28 21:12 26.04194 -81.09544 27098 ft 256 kts 356°
2026-04-28 21:12 26.05976 -81.09605 27097 ft 256 kts 356°
2026-04-28 21:12 26.07764 -81.09665 27098 ft 256 kts 356°
2026-04-28 21:12 26.09547 -81.09725 27098 ft 256 kts 356°
2026-04-28 21:13 26.11328 -81.09786 27097 ft 256 kts 356°
2026-04-28 21:13 26.13114 -81.09846 27097 ft 256 kts 356°
2026-04-28 21:13 26.14874 -81.09906 27097 ft 257 kts 356°
2026-04-28 21:13 26.16656 -81.09966 27098 ft 256 kts 356°
2026-04-28 21:14 26.18427 -81.09873 27092 ft 254 kts
2026-04-28 21:14 26.20171 -81.09528 27091 ft 254 kts
2026-04-28 21:14 26.21910 -81.09197 27090 ft 253 kts
2026-04-28 21:14 26.23648 -81.08870 27089 ft 253 kts
2026-04-28 21:15 26.25378 -81.08541 27089 ft 252 kts
2026-04-28 21:15 26.27110 -81.08210 27088 ft 252 kts
2026-04-28 21:15 26.28848 -81.07879 27088 ft 252 kts
2026-04-28 21:15 26.30553 -81.07554 27087 ft 252 kts
2026-04-28 21:16 26.32284 -81.07225 27086 ft 252 kts
2026-04-28 21:16 26.34014 -81.06894 27086 ft 252 kts
2026-04-28 21:16 26.35740 -81.06565 27088 ft 252 kts
2026-04-28 21:16 26.37467 -81.06236 27088 ft 252 kts
2026-04-28 21:17 26.39197 -81.05906 27088 ft 252 kts
2026-04-28 21:17 26.40924 -81.05576 27088 ft 252 kts
2026-04-28 21:17 26.42656 -81.05245 27088 ft 252 kts
2026-04-28 21:17 26.44383 -81.04915 27088 ft 252 kts
2026-04-28 21:18 26.46113 -81.04584 27085 ft 252 kts
2026-04-28 21:18 26.47823 -81.04258 27091 ft 252 kts
2026-04-28 21:18 26.49553 -81.03927 27090 ft 252 kts
2026-04-28 21:18 26.51281 -81.03596 27091 ft 252 kts
2026-04-28 21:19 26.53011 -81.03265 27086 ft 252 kts
2026-04-28 21:19 26.54741 -81.02934 27086 ft 252 kts
2026-04-28 21:19 26.56474 -81.02603 27086 ft 252 kts
2026-04-28 21:19 26.58203 -81.02271 27086 ft 252 kts
2026-04-28 21:20 26.59930 -81.01940 27095 ft 252 kts
2026-04-28 21:20 26.61661 -81.01609 27094 ft 252 kts
2026-04-28 21:20 26.63395 -81.01276 27094 ft 252 kts
2026-04-28 21:20 26.65128 -81.00944 27095 ft 252 kts
2026-04-28 21:21 26.66860 -81.00612 27094 ft 252 kts
2026-04-28 21:21 26.68591 -81.00279 27093 ft 252 kts
2026-04-28 21:21 26.70322 -80.99947 27093 ft 252 kts
2026-04-28 21:21 26.72030 -80.99619 27096 ft 252 kts
2026-04-28 21:22 26.73765 -80.99286 27097 ft 252 kts
2026-04-28 21:22 26.75497 -80.98953 27098 ft 252 kts
2026-04-28 21:22 26.77230 -80.98620 27098 ft 252 kts
2026-04-28 21:22 26.78400 -80.98395 27097 ft 252 kts
2026-04-28 21:23 26.80692 -80.97955 27097 ft 252 kts
2026-04-28 21:23 26.82425 -80.97622 27099 ft 252 kts
2026-04-28 21:23 26.84157 -80.97288 27098 ft 252 kts
2026-04-28 21:23 26.85889 -80.96955 27099 ft 252 kts
2026-04-28 21:24 26.87620 -80.96622 27096 ft 252 kts
2026-04-28 21:24 26.89329 -80.96292 27097 ft 252 kts
2026-04-28 21:24 26.91060 -80.95959 27096 ft 252 kts
2026-04-28 21:24 26.92791 -80.95626 27096 ft 252 kts
2026-04-28 21:25 26.94526 -80.95291 27097 ft 252 kts
2026-04-28 21:25 26.96255 -80.94957 27097 ft 252 kts
2026-04-28 21:25 26.97987 -80.94624 27097 ft 252 kts
2026-04-28 21:25 26.99716 -80.94290 27097 ft 252 kts
2026-04-28 21:26 27.01449 -80.93956 27097 ft 252 kts
2026-04-28 21:26 27.03176 -80.93622 27098 ft 252 kts
2026-04-28 21:26 27.04906 -80.93288 27094 ft 252 kts
2026-04-28 21:26 27.06637 -80.92954 27096 ft 252 kts
2026-04-28 21:27 27.08365 -80.92620 27097 ft 252 kts
2026-04-28 21:27 27.10100 -80.92284 27097 ft 252 kts
2026-04-28 21:27 27.11807 -80.91954 27096 ft 252 kts
2026-04-28 21:27 27.13537 -80.91619 27095 ft 252 kts
2026-04-28 21:28 27.15269 -80.91285 27092 ft 252 kts
2026-04-28 21:28 27.16998 -80.90950 27102 ft 252 kts
2026-04-28 21:28 27.18728 -80.90615 27101 ft 252 kts
2026-04-28 21:28 27.20457 -80.90280 27101 ft 252 kts
2026-04-28 21:29 27.22189 -80.89944 27100 ft 252 kts
2026-04-28 21:29 27.23921 -80.89609 27100 ft 252 kts
2026-04-28 21:29 27.25649 -80.89274 27100 ft 252 kts
2026-04-28 21:29 27.27379 -80.88938 27099 ft 252 kts
2026-04-28 21:30 27.29108 -80.88603 27098 ft 252 kts
2026-04-28 21:30 27.30840 -80.88265 27097 ft 251 kts
2026-04-28 21:30 27.32528 -80.87752 27094 ft 252 kts 14°
2026-04-28 21:30 27.34187 -80.87196 27095 ft 252 kts 14°
2026-04-28 21:31 27.35872 -80.86640 27098 ft 252 kts 14°
2026-04-28 21:31 27.37559 -80.86088 27100 ft 252 kts 14°
2026-04-28 21:31 27.39244 -80.85534 27102 ft 252 kts 14°
2026-04-28 21:31 27.40931 -80.84979 27104 ft 253 kts 14°
2026-04-28 21:32 27.42617 -80.84423 27130 ft 253 kts 14°
2026-04-28 21:32 27.44305 -80.83867 27130 ft 253 kts 14°
2026-04-28 21:32 27.45997 -80.83309 27130 ft 253 kts 14°
2026-04-28 21:32 27.47685 -80.82753 27130 ft 253 kts 14°
2026-04-28 21:33 27.49377 -80.82196 27129 ft 253 kts 14°
2026-04-28 21:33 27.51066 -80.81638 27130 ft 253 kts 14°
2026-04-28 21:33 27.52755 -80.81081 27130 ft 253 kts 14°
2026-04-28 21:33 27.54425 -80.80530 27138 ft 253 kts 14°
2026-04-28 21:34 27.56138 -80.79965 27137 ft 253 kts 14°
2026-04-28 21:34 27.57806 -80.79414 27137 ft 253 kts 14°
2026-04-28 21:34 27.59493 -80.78857 27138 ft 253 kts 14°
2026-04-28 21:34 27.61181 -80.78299 27138 ft 253 kts 14°
2026-04-28 21:35 27.62869 -80.77742 27133 ft 253 kts 14°
2026-04-28 21:35 27.64558 -80.77183 27133 ft 253 kts 14°
2026-04-28 21:35 27.66249 -80.76624 27134 ft 253 kts 14°
2026-04-28 21:35 27.67939 -80.76064 27144 ft 253 kts 14°
2026-04-28 21:36 27.69630 -80.75505 27144 ft 253 kts 14°
2026-04-28 21:36 27.71318 -80.74946 27145 ft 253 kts 14°
2026-04-28 21:36 27.73006 -80.74387 27144 ft 253 kts 14°
2026-04-28 21:36 27.74696 -80.73827 27144 ft 253 kts 14°
2026-04-28 21:37 27.76382 -80.73269 27150 ft 253 kts 14°
2026-04-28 21:37 27.78047 -80.72716 27150 ft 252 kts 14°
2026-04-28 21:37 27.79733 -80.72158 27151 ft 252 kts 13°
2026-04-28 21:37 27.81417 -80.71599 27151 ft 252 kts 14°
2026-04-28 21:38 27.83103 -80.71040 27148 ft 252 kts 14°
2026-04-28 21:38 27.84787 -80.70481 27147 ft 252 kts 14°
2026-04-28 21:38 27.86471 -80.69922 27148 ft 252 kts 14°
2026-04-28 21:38 27.88155 -80.69362 27150 ft 252 kts 14°
2026-04-28 21:39 27.89838 -80.68803 27152 ft 252 kts 14°
2026-04-28 21:39 27.91525 -80.68242 27152 ft 252 kts 14°
2026-04-28 21:39 27.93209 -80.67683 27152 ft 252 kts 13°
2026-04-28 21:39 27.94898 -80.67121 27153 ft 252 kts 14°
2026-04-28 21:40 27.96013 -80.66750 27151 ft 252 kts 14°
2026-04-28 21:40 27.98269 -80.66000 27151 ft 252 kts 14°
2026-04-28 21:40 27.99383 -80.65629 27151 ft 252 kts 14°
2026-04-28 21:40 28.01069 -80.65068 27150 ft 253 kts 14°
2026-04-28 21:41 28.02753 -80.64506 27147 ft 253 kts 14°
2026-04-28 21:41 28.04474 -80.63934 26784 ft 260 kts 14°
2026-04-28 21:41 28.06227 -80.63350 26424 ft 263 kts 13°
2026-04-28 21:41 28.08019 -80.63062 26080 ft 260 kts 358°
2026-04-28 21:42 28.09787 -80.63364 25745 ft 261 kts 342°
2026-04-28 21:42 28.11495 -80.64027 25404 ft 260 kts 341°
2026-04-28 21:42 28.13209 -80.64696 25075 ft 261 kts 341°
2026-04-28 21:42 28.14927 -80.65369 24730 ft 262 kts 341°
2026-04-28 21:43 28.16658 -80.66043 24386 ft 262 kts 341°
2026-04-28 21:43 28.18381 -80.66717 24055 ft 262 kts 341°
2026-04-28 21:43 28.20108 -80.67391 23720 ft 263 kts 341°
2026-04-28 21:43 28.21840 -80.68069 23329 ft 263 kts 341°
2026-04-28 21:44 28.23569 -80.68745 22933 ft 262 kts 341°
2026-04-28 21:44 28.25298 -80.69421 22528 ft 263 kts 341°
2026-04-28 21:44 28.27003 -80.70088 22128 ft 262 kts 341°
2026-04-28 21:44 28.28724 -80.70762 21733 ft 261 kts 341°
2026-04-28 21:45 28.30440 -80.71434 21337 ft 260 kts 341°
2026-04-28 21:45 28.32152 -80.72105 20947 ft 260 kts 341°
2026-04-28 21:45 28.33861 -80.72775 20563 ft 259 kts 341°
2026-04-28 21:45 28.35563 -80.73442 20174 ft 258 kts 341°
2026-04-28 21:46 28.37259 -80.74107 19777 ft 258 kts 340°
2026-04-28 21:46 28.38953 -80.74771 19383 ft 256 kts 340°
2026-04-28 21:46 28.40634 -80.75431 18995 ft 255 kts 340°
2026-04-28 21:46 28.42311 -80.76090 18613 ft 255 kts 340°
2026-04-28 21:47 28.43988 -80.76748 18190 ft 254 kts 340°
2026-04-28 21:47 28.45657 -80.77410 17754 ft 253 kts 340°
2026-04-28 21:47 28.47316 -80.78070 17324 ft 253 kts 341°
2026-04-28 21:47 28.48975 -80.78728 16902 ft 252 kts 341°
2026-04-28 21:48 28.50635 -80.79385 16484 ft 251 kts 341°
2026-04-28 21:48 28.52287 -80.80040 16071 ft 251 kts 341°
2026-04-28 21:48 28.53936 -80.80699 15664 ft 251 kts 341°
2026-04-28 21:48 28.55558 -80.81348 15269 ft 250 kts 342°
2026-04-28 21:49 28.57197 -80.82003 14872 ft 249 kts 342°
2026-04-28 21:49 28.58834 -80.82655 14479 ft 250 kts 342°
2026-04-28 21:49 28.60472 -80.83309 14092 ft 249 kts 342°
2026-04-28 21:49 28.62103 -80.83962 13673 ft 249 kts 343°
2026-04-28 21:50 28.63738 -80.84616 13239 ft 250 kts 342°
2026-04-28 21:50 28.65383 -80.85273 12782 ft 251 kts 342°
2026-04-28 21:50 28.67035 -80.85934 12368 ft 252 kts 343°
2026-04-28 21:50 28.68692 -80.86597 11955 ft 253 kts 343°
2026-04-28 21:51 28.70351 -80.87260 11549 ft 252 kts 343°
2026-04-28 21:51 28.72009 -80.87916 11149 ft 252 kts 343°
2026-04-28 21:51 28.73659 -80.88569 10751 ft 251 kts 343°
2026-04-28 21:51 28.75306 -80.89222 10359 ft 250 kts 343°
2026-04-28 21:52 28.76947 -80.89874 9964 ft 249 kts 344°
2026-04-28 21:52 28.78580 -80.90523 9533 ft 248 kts 344°
2026-04-28 21:52 28.80208 -80.91170 9104 ft 247 kts 344°
2026-04-28 21:52 28.81828 -80.91815 8687 ft 246 kts 344°
2026-04-28 21:53 28.83421 -80.92448 8282 ft 245 kts 345°
2026-04-28 21:53 28.85029 -80.93085 7873 ft 245 kts 343°
2026-04-28 21:53 28.86637 -80.93726 7470 ft 244 kts 342°
2026-04-28 21:53 28.88238 -80.94369 7072 ft 244 kts 343°
2026-04-28 21:54 28.89841 -80.95009 6675 ft 244 kts 342°
2026-04-28 21:54 28.91446 -80.95650 6259 ft 244 kts 343°
2026-04-28 21:54 28.93044 -80.96290 5840 ft 243 kts 342°
2026-04-28 21:54 28.94632 -80.96927 5423 ft 241 kts 341°
2026-04-28 21:55 28.96206 -80.97553 5028 ft 237 kts 340°
2026-04-28 21:55 28.97705 -80.98154 4986 ft 220 kts 340°
2026-04-28 21:55 28.99113 -80.98720 4981 ft 210 kts 340°
2026-04-28 21:55 29.00475 -80.99266 4975 ft 204 kts 340°
2026-04-28 21:56 29.01767 -80.99888 4846 ft 205 kts 322°
2026-04-28 21:56 29.02563 -81.01248 4578 ft 214 kts 286°
2026-04-28 21:56 29.02745 -81.02952 4323 ft 220 kts 275°
2026-04-28 21:56 29.02781 -81.04700 4067 ft 222 kts 272°
2026-04-28 21:57 29.02784 -81.06453 3803 ft 224 kts 272°
2026-04-28 21:57 29.02795 -81.08221 3543 ft 221 kts 273°
2026-04-28 21:57 29.02814 -81.09961 3261 ft 218 kts 273°
2026-04-28 21:57 29.02824 -81.11706 2984 ft 221 kts 274°
2026-04-28 21:58 29.02828 -81.13465 2716 ft 223 kts 274°
2026-04-28 21:58 29.02824 -81.15259 2441 ft 226 kts 272°
2026-04-28 21:58 29.02836 -81.17046 2171 ft 223 kts 271°
2026-04-28 21:58 29.02878 -81.18807 1991 ft 219 kts 276°
2026-04-28 21:59 29.03312 -81.20405 1975 ft 208 kts 309°
2026-04-28 21:59 29.04344 -81.21469 1979 ft 197 kts 330°
2026-04-28 21:59 29.05473 -81.22329 1979 ft 194 kts 331°
2026-04-28 22:00 29.07775 -81.23545 1979 ft 171 kts
2026-04-28 22:00 29.08933 -81.23431 1974 ft 163 kts 12°
2026-04-28 22:00 29.10001 -81.23174 1925 ft 154 kts 22°
2026-04-28 22:00 29.10954 -81.22649 1768 ft 151 kts 38°
2026-04-28 22:01 29.11672 -81.21830 1584 ft 141 kts 62°
2026-04-28 22:01 29.12095 -81.20873 1445 ft 127 kts 69°
2026-04-28 22:01 29.12387 -81.19935 1327 ft 126 kts 71°
2026-04-28 22:01 29.12646 -81.18974 1440 ft 126 kts 70°
2026-04-28 22:02 29.13007 -81.18042 1466 ft 134 kts 65°
2026-04-28 22:02 29.13446 -81.17052 1423 ft 140 kts 64°
2026-04-28 22:02 29.13891 -81.16030 1342 ft 148 kts 64°
2026-04-28 22:02 29.14329 -81.14966 1173 ft 147 kts 67°
2026-04-28 22:03 29.14749 -81.13950 1045 ft 132 kts 66°
2026-04-28 22:03 29.15114 -81.13089 946 ft 104 kts 69°
2026-04-28 22:03 29.15409 -81.12406 817 ft 95 kts 68°
2026-04-28 22:03 29.15691 -81.11683 689 ft 103 kts 69°
2026-04-28 22:04 29.15977 -81.10916 589 ft 106 kts 64°
2026-04-28 22:04 29.16304 -81.10157 517 ft 106 kts 70°
2026-04-28 22:04 29.16606 -81.09400 406 ft 103 kts 64°
2026-04-28 22:04 29.16898 -81.08659 293 ft 104 kts 66°
2026-04-28 22:05 29.17200 -81.07904 124 ft 100 kts 66°
2026-04-28 22:05 29.17472 -81.07242 38 ft 80 kts 66°
2026-04-28 22:05 29.17655 -81.06797 36 ft 45 kts 64°
2026-04-28 22:05 29.17769 -81.06517 36 ft 32 kts 65°
2026-04-28 22:06 29.17855 -81.06456 36 ft 15 kts 318°
2026-04-28 22:06 29.17945 -81.06451 38 ft 14 kts 65°
2026-04-28 22:06 29.17981 -81.06364 38 ft 14 kts 67°
2026-04-28 22:06 29.18028 -81.06243 38 ft 19 kts 66°
2026-04-28 22:07 29.18093 -81.06084 38 ft 25 kts 64°
2026-04-28 22:07 29.18153 -81.05938 38 ft 14 kts 64°
2026-04-28 22:07 29.18190 -81.05847 38 ft 13 kts 66°
2026-04-28 22:07 29.18233 -81.05741 38 ft 14 kts 65°
2026-04-28 22:08 29.18276 -81.05640 38 ft 15 kts 63°
2026-04-28 22:08 29.18316 -81.05548 38 ft 13 kts 64°
2026-04-28 22:08 29.18367 -81.05444 38 ft 14 kts 22°
2026-04-28 22:08 29.18480 -81.05487 38 ft 21 kts 336°
2026-04-28 22:09 29.18577 -81.05557 38 ft 19 kts 300°
2026-04-28 22:09 29.18608 -81.05655 38 ft 0 kts 229°
2026-04-28 22:09 29.18609 -81.05655 38 ft 0 kts 229°
2026-04-28 22:13 29.18609 -81.05654 38 ft 0 kts 229°